Regional Weather Roundup
Issued by NWS

Home | Current Version | Previous Version | Graphics & Text | Print | Product List | Glossary On
Versions: 1 2 3 4 5 6 7 8 9 10 11 12 13 14 15 16 17 18 19 20 21 22 23 24 25 26 27 28 29 30 31 32 33 34 35 36 37 38 39 40 41 42 43 44 45 46 47 48 49 50
000
ASUS44 KMEG 241510
RWRTN
TENNESSEE HOURLY STATE WEATHER ROUNDUP
NATIONAL WEATHER SERVICE MEMPHIS TN
1000 AM CDT SAT SEP 24 2016

TNZ002-004-019-021-049-052-054-088>092-241600-
WEST TENNESSEE

CITY           SKY/WX    TMP DP  RH WIND       PRES   REMARKS
MEMPHIS INTL   MOSUNNY   85  67  54 CALM      30.10S
NWS MEMPHIS      N/A     82 N/A N/A MISG        N/A
JACKSON        SUNNY    N/A N/A N/A CALM      30.12R
DYERSBURG      SUNNY    N/A N/A N/A MISG      30.10F
UNION CITY     SUNNY     84  70  61 CALM      30.11S
PARIS          SUNNY     82  68  61 SE3       30.13S
HUNTINGDON       N/A     82  70  65 SE3       30.12S
LEXINGTON      SUNNY     82  66  57 CALM      30.12S
$$

TNZ008-025-027-028-033-062-065-066-241600-
NORTH MIDDLE TENNESSEE

CITY           SKY/WX    TMP DP  RH WIND       PRES   REMARKS
NASHVILLE      SUNNY     82  66  58 CALM      30.14S
PORTLAND       SUNNY     81  66  61 CALM      30.15S
CLARKSVILLE    SUNNY     81  66  60 CALM      30.14S
SMYRNA         SUNNY     79  68  69 CALM      30.15S
COOKEVILLE     SUNNY     81  68  65 CALM      30.15S
GALLATIN       SUNNY     81  68  65 CALM      30.17S
CROSSVILLE     SUNNY     81  62  52 VRB3      30.20R
$$

TNZ061-075-076-078-094-096-097-241600-
SOUTH MIDDLE TENNESSEE

CITY           SKY/WX    TMP DP  RH WIND       PRES   REMARKS
FAYETTEVILLE   PTSUNNY   81  66  61 CALM      30.15R
TULLAHOMA      SUNNY     81  63  54 CALM      30.16S
WINCHESTER     SUNNY     81  66  61 CALM      30.15S
MCMINNVILLE    SUNNY     81  68  65 NE3       30.16R
COLUMBIA       SUNNY     79  79 100 CALM      30.13S
SHELBYVILLE    SUNNY     82  70  65 N3        30.15S
$$

TNZ017-018-042-046-047-241600-
NORTHEAST TENNESSEE

CITY           SKY/WX    TMP DP  RH WIND       PRES   REMARKS
TRI CITIES     SUNNY     76  65  68 CALM      30.18S
ELIZABETHTON   SUNNY     79  63  57 SW3       30.17F
$$

TNZ012-013-036-069-073-074-241600-
CENTRAL EAST TENNESSEE

CITY           SKY/WX    TMP DP  RH WIND       PRES   REMARKS
KNOXVILLE      MOSUNNY   79  62  56 NE3       30.14S
OAK RIDGE      SUNNY     80  66  62 VRB3      30.16S
DOWNTOWN KNOXV SUNNY     81  68  65 CALM      30.15S
GATLINBURG     SUNNY     79  63  57 CALM      30.14F
MORRISTOWN     SUNNY     81  64  57 CALM      30.16S
JACKSBORO      SUNNY     81  66  61 CALM      30.19S
$$

TNZ083-085-099-241600-
SOUTHEAST TENNESSEE

CITY           SKY/WX    TMP DP  RH WIND       PRES   REMARKS
CHATTANOOGA    MOSUNNY   82  66  58 N5        30.14S
$$

SKY/WX REPORTED AS FAIR MEANS FEW OR NO CLOUDS BELOW
12 THOUSAND FEET.




USA.gov is the U.S. government's official web portal to all federal, state and local government web resources and services.